Regional Weather Roundup
Issued by NWS Huntsville, AL

Home | Current Version | Previous Version | Text Only | Print | Product List | Glossary On
Versions: 1 2 3 4 5 6 7 8 9 10 11 12 13 14 15 16 17 18 19 20 21 22 23 24 25 26 27 28 29 30 31 32 33 34 35 36 37 38 39 40 41 42 43 44 45 46 47 48 49 50
000
ASUS44 KHUN 260510
RWRHUN

WEATHER ROUNDUP FOR THE TENNESSEE VALLEY
NATIONAL WEATHER SERVICE HUNTSVILLE AL
1200 AM CDT MON JUN 26 2017

ALZ001>004-260600-
NORTHWEST ALABAMA

CITY           SKY/WX    TMP DP  RH WIND       PRES   REMARKS
COURTLAND HCN    N/A     63 N/A N/A CALM        N/A
RUSSELLVILLE     N/A     59 N/A N/A MISG        N/A
SHOALS AIRPORT PTCLDY    63  57  81 CALM      30.20S
SHOALS TVA RES   N/A     59 N/A N/A MISG        N/A
$$

ALZ005>007-016-260600-
NORTH CENTRAL ALABAMA

CITY           SKY/WX    TMP DP  RH WIND       PRES   REMARKS
CULLMAN AG STN   N/A     59 N/A N/A CALM        N/A
DECATUR AP     CLEAR     61  59  93 CALM      30.20S
HUNTSVILLE AP  CLEAR     63  59  87 CALM      30.19S
MERIDIANVILLE  CLEAR     61  59  94 CALM      30.20S
REDSTONE ARSN  CLEAR     62  56  81 CALM      30.18S
VINEMONT AP    FAIR      57  56  95 CALM      30.22S
$$

ALZ008>010-260600-
NORTHEAST ALABAMA

CITY           SKY/WX    TMP DP  RH WIND       PRES   REMARKS
ALBERTVILLE    CLEAR     61  61 100 CALM      30.19S
FORT PAYNE     NOT AVBL
SCOTTSBORO AP  CLEAR     59  59 100 CALM      30.20S
SCOTTSBORO HCN   N/A     59 N/A N/A MISG        N/A
VALLEY HEAD      N/A     55 N/A N/A MISG        N/A
$$

TNZ076-096-097-260600-
SOUTHEASTERN MIDDLE TENNESSEE

CITY           SKY/WX    TMP DP  RH WIND       PRES   REMARKS
TULLAHOMA      CLEAR     57  54  88 CALM      30.21S
WINCHESTER     CLEAR     55  55 100 CALM        N/A
$$

...SURROUNDING SITES...

CITY           SKY/WX    TMP DP  RH WIND       PRES   REMARKS
ATLANTA        PTCLDY    67  61  81 NW8       30.15F
ANNISTON       CLEAR     64  61  90 CALM      30.18F
BIRMINGHAM     CLEAR     65  63  93 CALM      30.21S
CHATTANOOGA    CLEAR     63  55  75 CALM      30.19S
CORINTH        FAIR      63  61  94 CALM      30.19S
DALTON         CLEAR     59  59 100 CALM      30.18F
GADSDEN        CLEAR     62  61  96 NW3       30.19S
GOLDEN TRNGL   CLEAR     64  59  82 CALM      30.15S
JACKSON TN     CLEAR     63  61  93 CALM      30.19S
MEMPHIS        CLEAR     68  58  70 SW3       30.19S
NASHVILLE      CLEAR     64  56  75 S5        30.18S
OXFORD MS      FAIR      61  57  88 CALM      30.21F
ROME           CLEAR     62  62 100 CALM      30.17S FOG
SAVANNAH       CLEAR     59  59 100 CALM      30.19S
SELMER         CLEAR     59  57  94 CALM      30.19S
TUPELO         CLEAR     65  59  81 CALM      30.19S
TUSCALOOSA     CLEAR     65  65 100 CALM      30.18F
$$

...GULF COAST WEATHER...

CITY           SKY/WX    TMP DP  RH WIND       PRES   REMARKS
GULFPORT       CLEAR     75  68  78 N5        30.13R
PASCAGOULA     MOCLDY    75  65  70 NE5       30.13S
MOBILE         CLEAR     74  65  73 N6        30.15S
GULF SHORES    PTCLDY    74  69  86 NE8       30.12S
PENSACOLA      CLEAR     76  69  79 N7        30.11S
DESTIN         MOCLDY    80  80 100 N3        30.10F
PANAMA CITY    DRIZZLE   77  74  91 CALM      30.10S
APPALACHICOLA  CLOUDY    75  75 100 N6        30.09S
$$




USA.gov is the U.S. government's official web portal to all federal, state and local government web resources and services.